EN

Hourly Weather Godzieby

Today, 18 May, Tuesday

Time Temperature Precipitation Wind Pressure Humidity
00:00 +10°C° 1.9 mm 3 mps 742 mmHg 96%
01:00 +10°C° 0 mm 3 mps 742 mmHg 96%
02:00 +10°C° 2.4 mm 3 mps 742 mmHg 97%
03:00 +10°C° 2.4 mm 3 mps 742 mmHg 97%
04:00 +10°C° 2.4 mm 3 mps 742 mmHg 97%
05:00 +10°C° 1.7 mm 3 mps 742 mmHg 97%
06:00 +10°C° 1.7 mm 3 mps 742 mmHg 97%
07:00 +10°C° 1.7 mm 3 mps 743 mmHg 97%
08:00 +10°C° 1.1 mm 3 mps 743 mmHg 95%
09:00 +11°C° 1.1 mm 3 mps 743 mmHg 93%
10:00 +11°C° 1.1 mm 3 mps 743 mmHg 91%
11:00 +12°C° 0.5 mm 3 mps 744 mmHg 88%
12:00 +13°C° 0.5 mm 4 mps 744 mmHg 85%
13:00 +13°C° 0.5 mm 4 mps 744 mmHg 81%
14:00 +13°C° 0.4 mm 4 mps 744 mmHg 81%
15:00 +14°C° 0.4 mm 4 mps 744 mmHg 80%
16:00 +14°C° 0.4 mm 4 mps 744 mmHg 79%
17:00 +13°C° 0.2 mm 4 mps 744 mmHg 82%
18:00 +12°C° 0.2 mm 3 mps 744 mmHg 85%
19:00 +13°C° 0.2 mm 2 mps 744 mmHg 88%
20:00 +12°C° 0.2 mm 2 mps 745 mmHg 90%
21:00 +12°C° 0.2 mm 2 mps 745 mmHg 92%
22:00 +10°C° 0.2 mm 2 mps 745 mmHg 94%
23:00 +10°C° 0.1 mm 2 mps 745 mmHg 95%

Tomorrow, 19 May, Wednesday

Time Temperature Precipitation Wind Pressure Humidity
00:00 +10°C° 0.1 mm 2 mps 745 mmHg 95%
01:00 +10°C° 0.1 mm 2 mps 745 mmHg 96%
02:00 +9°C° 0.1 mm 3 mps 746 mmHg 96%
03:00 +9°C° 0.1 mm 3 mps 746 mmHg 96%
04:00 +9°C° 0.1 mm 3 mps 746 mmHg 97%
05:00 +9°C° 0.1 mm 3 mps 746 mmHg 92%
06:00 +10°C° 0.1 mm 4 mps 746 mmHg 88%
07:00 +11°C° 0.1 mm 4 mps 747 mmHg 84%
08:00 +12°C° 0 mm 5 mps 747 mmHg 77%
09:00 +13°C° 0 mm 5 mps 747 mmHg 71%
10:00 +14°C° 0 mm 5 mps 747 mmHg 64%
11:00 +15°C° 0.1 mm 5 mps 747 mmHg 64%
12:00 +15°C° 0.1 mm 5 mps 747 mmHg 63%
13:00 +15°C° 0.1 mm 5 mps 747 mmHg 63%
14:00 +15°C° 0.1 mm 5 mps 747 mmHg 63%
15:00 +15°C° 0.1 mm 5 mps 747 mmHg 64%
16:00 +15°C° 0.1 mm 5 mps 747 mmHg 64%
17:00 +13°C° 0.2 mm 4 mps 747 mmHg 71%
18:00 +12°C° 0.2 mm 3 mps 747 mmHg 78%
19:00 +11°C° 0.2 mm 3 mps 747 mmHg 85%
20:00 +10°C° 0 mm 2 mps 748 mmHg 87%
21:00 +9°C° 0 mm 2 mps 748 mmHg 89%
22:00 +8°C° 0 mm 2 mps 748 mmHg 91%
23:00 +8°C° 0 mm 2 mps 748 mmHg 92%

Day after tomorrow, 20 May, Thursday

Time Temperature Precipitation Wind Pressure Humidity
00:00 +7°C° 0 mm 2 mps 748 mmHg 92%
01:00 +7°C° 0 mm 2 mps 749 mmHg 93%
02:00 +7°C° 0 mm 2 mps 749 mmHg 93%
03:00 +6°C° 0 mm 2 mps 749 mmHg 93%
04:00 +5°C° 0 mm 2 mps 749 mmHg 92%
05:00 +7°C° 0 mm 3 mps 749 mmHg 87%
06:00 +8°C° 0 mm 3 mps 750 mmHg 81%
07:00 +10°C° 0 mm 3 mps 750 mmHg 75%
08:00 +11°C° 0 mm 4 mps 750 mmHg 70%
09:00 +12°C° 0 mm 4 mps 750 mmHg 65%
10:00 +14°C° 0 mm 4 mps 750 mmHg 61%
11:00 +14°C° 0 mm 4 mps 750 mmHg 58%
12:00 +15°C° 0 mm 4 mps 750 mmHg 55%
13:00 +17°C° 0 mm 4 mps 750 mmHg 52%
14:00 +15°C° 0.1 mm 4 mps 750 mmHg 58%
15:00 +15°C° 0.1 mm 5 mps 750 mmHg 63%
16:00 +14°C° 0.1 mm 5 mps 750 mmHg 68%
17:00 +13°C° 0.2 mm 4 mps 751 mmHg 74%
18:00 +12°C° 0.2 mm 4 mps 751 mmHg 80%
19:00 +11°C° 0.2 mm 3 mps 751 mmHg 85%
20:00 +10°C° 0 mm 3 mps 751 mmHg 88%
21:00 +9°C° 0 mm 3 mps 751 mmHg 90%
22:00 +8°C° 0 mm 3 mps 752 mmHg 92%
23:00 +7°C° 0 mm 2 mps 752 mmHg 92%

21 May, Friday

Time Temperature Precipitation Wind Pressure Humidity
00:00 +7°C° 0 mm 2 mps 752 mmHg 92%
01:00 +6°C° 0 mm 2 mps 752 mmHg 91%
02:00 +6°C° 0 mm 2 mps 752 mmHg 91%
03:00 +6°C° 0 mm 2 mps 752 mmHg 92%
04:00 +6°C° 0 mm 2 mps 752 mmHg 92%
05:00 +7°C° 0 mm 2 mps 752 mmHg 87%
06:00 +9°C° 0 mm 2 mps 752 mmHg 83%
07:00 +11°C° 0 mm 3 mps 752 mmHg 78%
08:00 +12°C° 0 mm 3 mps 752 mmHg 72%
09:00 +14°C° 0 mm 4 mps 751 mmHg 66%
10:00 +15°C° 0 mm 4 mps 751 mmHg 60%
11:00 +16°C° 0 mm 5 mps 751 mmHg 58%
12:00 +16°C° 0 mm 5 mps 750 mmHg 55%
13:00 +17°C° 0 mm 5 mps 750 mmHg 52%
14:00 +17°C° 0 mm 5 mps 750 mmHg 54%
15:00 +17°C° 0 mm 5 mps 749 mmHg 56%
16:00 +17°C° 0 mm 5 mps 749 mmHg 58%
17:00 +17°C° 0 mm 4 mps 748 mmHg 63%
18:00 +15°C° 0 mm 4 mps 748 mmHg 69%
19:00 +13°C° 0 mm 3 mps 747 mmHg 74%
20:00 +13°C° 0 mm 4 mps 747 mmHg 72%
21:00 +13°C° 0 mm 5 mps 746 mmHg 69%
22:00 +13°C° 0 mm 6 mps 746 mmHg 67%
23:00 +13°C° 0 mm 6 mps 746 mmHg 68%

22 May, Saturday

Time Temperature Precipitation Wind Pressure Humidity
00:00 +12°C° 0 mm 5 mps 745 mmHg 69%
01:00 +12°C° 0 mm 5 mps 745 mmHg 70%
02:00 +12°C° 0 mm 5 mps 745 mmHg 71%
03:00 +12°C° 0 mm 5 mps 744 mmHg 72%
04:00 +10°C° 0 mm 5 mps 743 mmHg 73%
05:00 +12°C° 0 mm 5 mps 744 mmHg 72%
06:00 +13°C° 0 mm 5 mps 744 mmHg 72%
07:00 +14°C° 0 mm 5 mps 744 mmHg 72%
08:00 +15°C° 0 mm 6 mps 744 mmHg 68%
09:00 +16°C° 0 mm 6 mps 744 mmHg 64%
10:00 +17°C° 0 mm 6 mps 743 mmHg 60%
11:00 +17°C° 0 mm 6 mps 743 mmHg 61%
12:00 +17°C° 0 mm 6 mps 743 mmHg 63%
13:00 +17°C° 0 mm 6 mps 742 mmHg 64%
14:00 +16°C° 0.5 mm 5 mps 742 mmHg 72%
15:00 +14°C° 0.5 mm 4 mps 742 mmHg 81%
16:00 +13°C° 0.5 mm 3 mps 742 mmHg 90%
17:00 +12°C° 0.5 mm 3 mps 743 mmHg 91%
18:00 +12°C° 0.5 mm 3 mps 743 mmHg 91%
19:00 +12°C° 0.5 mm 3 mps 743 mmHg 92%
20:00 +11°C° 0 mm 4 mps 744 mmHg 90%
21:00 +11°C° 0 mm 4 mps 744 mmHg 89%
22:00 +10°C° 0 mm 5 mps 745 mmHg 88%
23:00 +9°C° 0 mm 5 mps 745 mmHg 88%

23 May, Sunday

Time Temperature Precipitation Wind Pressure Humidity
00:00 +9°C° 0 mm 5 mps 745 mmHg 87%
01:00 +8°C° 0 mm 5 mps 745 mmHg 87%
02:00 +7°C° 0 mm 5 mps 745 mmHg 88%
03:00 +7°C° 0 mm 4 mps 745 mmHg 90%
04:00 +6°C° 0 mm 4 mps 745 mmHg 91%
05:00 +8°C° 0 mm 4 mps 746 mmHg 87%
06:00 +9°C° 0 mm 5 mps 746 mmHg 83%
07:00 +10°C° 0 mm 5 mps 746 mmHg 79%
08:00 +11°C° 0.2 mm 6 mps 747 mmHg 76%
09:00 +11°C° 0.2 mm 6 mps 747 mmHg 72%
10:00 +13°C° 0.2 mm 6 mps 747 mmHg 69%
11:00 +14°C° 0.3 mm 6 mps 747 mmHg 67%
12:00 +14°C° 0.3 mm 7 mps 747 mmHg 65%
13:00 +15°C° 0.3 mm 7 mps 747 mmHg 62%
14:00 +15°C° 0.1 mm 6 mps 747 mmHg 60%
15:00 +15°C° 0.1 mm 6 mps 748 mmHg 58%
16:00 +15°C° 0.1 mm 5 mps 748 mmHg 56%
17:00 +14°C° 0 mm 5 mps 748 mmHg 62%
18:00 +13°C° 0 mm 4 mps 748 mmHg 68%
19:00 +11°C° 0 mm 3 mps 749 mmHg 75%
20:00 +10°C° 0 mm 3 mps 749 mmHg 76%
21:00 +9°C° 0 mm 3 mps 749 mmHg 77%
22:00 +8°C° 0 mm 3 mps 750 mmHg 78%
23:00 +8°C° 0 mm 3 mps 750 mmHg 79%
Show more